Time,TemperatureF,DewpointF,PressureIn,WindDirection,WindDirectionDegrees,WindSpeedMPH,WindSpeedGustMPH,Humidity,HourlyPrecipIn,Conditions,Clouds,dailyrainin,SoftwareType,DateUTC
2013-08-22 00:01:00,68.4,59.7,30.06,NNE,14,0.0,0.0,74,0.00,,,0.00,VWS V14.00,2013-08-22 04:01:00,
2013-08-22 00:03:00,69.7,59.3,30.07,NNE,14,0.0,0.0,70,0.00,,,0.00,VWS V14.00,2013-08-22 04:03:00,
2013-08-22 00:04:00,68.4,59.8,30.06,NNE,14,0.0,0.0,74,0.00,,,0.00,VWS V14.00,2013-08-22 04:04:00,
2013-08-22 00:06:00,69.4,59.0,30.07,NNE,14,0.0,0.0,70,0.00,,,0.00,VWS V14.00,2013-08-22 04:06:00,
2013-08-22 00:07:00,68.2,59.8,30.06,NNE,14,0.0,0.0,75,0.00,,,0.00,VWS V14.00,2013-08-22 04:07:00,
2013-08-22 00:10:00,68.1,59.9,30.06,NNE,14,0.0,0.0,75,0.00,,,0.00,VWS V14.00,2013-08-22 04:10:00,
2013-08-22 00:12:00,69.4,59.2,30.07,NNE,14,0.0,0.0,70,0.00,,,0.00,VWS V14.00,2013-08-22 04:12:00,
2013-08-22 00:13:00,67.7,59.7,30.06,NNE,14,0.0,0.0,76,0.00,,,0.00,VWS V14.00,2013-08-22 04:13:00,
2013-08-22 00:15:00,69.4,59.2,30.07,NNE,14,0.0,0.0,70,0.00,,,0.00,VWS V14.00,2013-08-22 04:15:00,
2013-08-22 00:16:00,67.7,59.9,30.06,NNE,14,0.0,0.0,76,0.00,,,0.00,VWS V14.00,2013-08-22 04:16:00,
2013-08-22 00:19:00,67.4,59.8,30.06,NNE,14,0.0,0.0,76,0.00,,,0.00,VWS V14.00,2013-08-22 04:19:00,
2013-08-22 00:21:00,69.5,59.5,30.06,NNE,14,0.0,0.0,70,0.00,,,0.00,VWS V14.00,2013-08-22 04:21:00,
2013-08-22 00:22:00,67.3,59.8,30.06,NNE,14,0.0,0.0,77,0.00,,,0.00,VWS V14.00,2013-08-22 04:22:00,
2013-08-22 00:25:00,67.2,59.8,30.06,NNE,14,0.0,0.0,77,0.00,,,0.00,VWS V14.00,2013-08-22 04:25:00,
2013-08-22 00:27:00,69.5,59.5,30.07,NNE,14,0.0,0.0,70,0.00,,,0.00,VWS V14.00,2013-08-22 04:27:00,
2013-08-22 00:28:00,67.1,59.8,30.06,NNE,14,0.0,0.0,77,0.00,,,0.00,VWS V14.00,2013-08-22 04:28:00,
2013-08-22 00:31:00,67.1,59.9,30.06,NNE,14,0.0,0.0,78,0.00,,,0.00,VWS V14.00,2013-08-22 04:31:00,
2013-08-22 00:33:00,69.4,59.6,30.07,NNE,14,0.0,0.0,71,0.00,,,0.00,VWS V14.00,2013-08-22 04:33:00,
2013-08-22 00:34:00,67.0,60.0,30.06,SSE,163,2.9,3.4,78,0.00,,,0.00,VWS V14.00,2013-08-22 04:34:00,
2013-08-22 00:37:00,66.9,59.9,30.06,SSE,167,0.0,3.5,78,0.00,,,0.00,VWS V14.00,2013-08-22 04:37:00,
2013-08-22 00:39:00,69.3,59.9,30.07,NNE,14,0.0,0.0,72,0.00,,,0.00,VWS V14.00,2013-08-22 04:39:00,
2013-08-22 00:40:00,66.7,59.8,30.06,SSE,167,0.0,3.5,78,0.00,,,0.00,VWS V14.00,2013-08-22 04:40:00,
2013-08-22 00:43:00,66.7,59.9,30.06,SSE,167,0.0,3.5,79,0.00,,,0.00,VWS V14.00,2013-08-22 04:43:00,
2013-08-22 00:45:00,69.0,59.8,30.07,NNE,14,0.0,0.0,72,0.00,,,0.00,VWS V14.00,2013-08-22 04:45:00,
2013-08-22 00:46:00,66.4,59.7,30.06,SSE,165,0.0,4.7,79,0.00,,,0.00,VWS V14.00,2013-08-22 04:46:00,
2013-08-22 00:49:00,66.4,59.7,30.06,SSE,166,0.0,4.7,79,0.00,,,0.00,VWS V14.00,2013-08-22 04:49:00,
2013-08-22 00:51:00,68.7,59.8,30.06,NNE,14,0.0,0.0,73,0.00,,,0.00,VWS V14.00,2013-08-22 04:51:00,
2013-08-22 00:52:00,66.2,59.6,30.06,SSE,153,0.0,5.4,79,0.00,,,0.00,VWS V14.00,2013-08-22 04:52:00,
2013-08-22 00:55:00,66.1,59.7,30.06,SSE,153,0.0,5.4,80,0.00,,,0.00,VWS V14.00,2013-08-22 04:55:00,
2013-08-22 00:58:00,66.0,59.7,30.06,SSE,159,0.0,5.4,80,0.00,,,0.00,VWS V14.00,2013-08-22 04:58:00,
2013-08-22 01:01:00,65.9,59.7,30.06,SSE,160,4.3,5.4,80,0.00,,,0.00,VWS V14.00,2013-08-22 05:01:00,
2013-08-22 01:04:00,65.9,59.8,30.05,SE,145,0.0,5.4,81,0.00,,,0.00,VWS V14.00,2013-08-22 05:04:00,
2013-08-22 01:07:00,65.8,59.8,30.06,SE,145,0.0,5.4,81,0.00,,,0.00,VWS V14.00,2013-08-22 05:07:00,
2013-08-22 01:10:00,65.7,59.7,30.06,SSE,158,0.0,5.4,81,0.00,,,0.00,VWS V14.00,2013-08-22 05:10:00,
2013-08-22 01:13:00,65.8,59.8,30.06,South,180,4.8,5.4,81,0.00,,,0.00,VWS V14.00,2013-08-22 05:13:00,
2013-08-22 01:16:00,65.6,59.7,30.06,South,176,0.0,5.4,81,0.00,,,0.00,VWS V14.00,2013-08-22 05:16:00,
2013-08-22 01:19:00,65.6,59.8,30.05,South,176,0.0,5.4,81,0.00,,,0.00,VWS V14.00,2013-08-22 05:19:00,
2013-08-22 01:22:00,65.6,59.8,30.05,SSE,148,0.0,6.0,81,0.00,,,0.00,VWS V14.00,2013-08-22 05:22:00,
2013-08-22 01:25:00,65.4,59.6,30.05,SSE,148,0.0,6.0,82,0.00,,,0.00,VWS V14.00,2013-08-22 05:25:00,
2013-08-22 01:28:00,65.4,59.7,30.05,SSE,163,5.3,6.0,82,0.00,,,0.00,VWS V14.00,2013-08-22 05:28:00,
2013-08-22 01:31:00,65.2,59.6,30.05,SE,131,0.0,6.0,82,0.00,,,0.00,VWS V14.00,2013-08-22 05:31:00,
2013-08-22 01:34:00,65.2,59.7,30.05,SE,131,0.0,6.0,82,0.00,,,0.00,VWS V14.00,2013-08-22 05:34:00,
2013-08-22 01:37:00,65.2,59.7,30.04,SE,131,0.0,6.0,82,0.00,,,0.00,VWS V14.00,2013-08-22 05:37:00,
2013-08-22 01:40:00,65.1,59.5,30.05,SSE,152,3.4,6.0,82,0.00,,,0.00,VWS V14.00,2013-08-22 05:40:00,
2013-08-22 01:43:00,65.1,59.6,30.04,SSE,149,2.9,6.0,82,0.00,,,0.00,VWS V14.00,2013-08-22 05:43:00,
2013-08-22 01:46:00,65.1,59.6,30.04,SE,146,0.0,6.0,82,0.00,,,0.00,VWS V14.00,2013-08-22 05:46:00,
2013-08-22 01:49:00,65.1,59.6,30.04,SE,146,0.0,6.0,82,0.00,,,0.00,VWS V14.00,2013-08-22 05:49:00,
2013-08-22 01:52:00,65.0,59.5,30.04,SE,146,0.0,6.0,82,0.00,,,0.00,VWS V14.00,2013-08-22 05:52:00,
2013-08-22 01:55:00,65.0,59.5,30.04,SE,146,0.0,6.0,82,0.00,,,0.00,VWS V14.00,2013-08-22 05:55:00,
2013-08-22 01:58:00,65.0,59.5,30.04,SSE,155,3.4,6.0,82,0.00,,,0.00,VWS V14.00,2013-08-22 05:58:00,
2013-08-22 02:01:00,64.9,59.4,30.04,SE,135,0.0,6.0,82,0.00,,,0.00,VWS V14.00,2013-08-22 06:01:00,
2013-08-22 02:04:00,64.9,59.5,30.04,SE,135,0.0,6.0,83,0.00,,,0.00,VWS V14.00,2013-08-22 06:04:00,
2013-08-22 02:07:00,64.8,59.5,30.03,SE,135,0.0,6.0,83,0.00,,,0.00,VWS V14.00,2013-08-22 06:07:00,
2013-08-22 02:10:00,64.9,59.7,30.04,SE,135,0.0,6.0,83,0.00,,,0.00,VWS V14.00,2013-08-22 06:10:00,
2013-08-22 02:13:00,64.8,59.7,30.03,SE,135,0.0,6.0,83,0.00,,,0.00,VWS V14.00,2013-08-22 06:13:00,
2013-08-22 02:16:00,64.8,59.8,30.04,SE,135,0.0,6.0,84,0.00,,,0.00,VWS V14.00,2013-08-22 06:16:00,
2013-08-22 02:19:00,64.7,59.8,30.04,SE,135,0.0,6.0,84,0.00,,,0.00,VWS V14.00,2013-08-22 06:19:00,
2013-08-22 02:22:00,64.6,59.8,30.03,SE,135,0.0,6.0,84,0.00,,,0.00,VWS V14.00,2013-08-22 06:22:00,
2013-08-22 02:25:00,64.5,59.8,30.04,SE,135,0.0,6.0,85,0.00,,,0.00,VWS V14.00,2013-08-22 06:25:00,
2013-08-22 02:28:00,64.4,59.8,30.04,SSE,162,2.9,6.0,85,0.00,,,0.00,VWS V14.00,2013-08-22 06:28:00,
2013-08-22 02:31:00,64.4,59.9,30.04,SE,145,2.9,6.0,85,0.00,,,0.00,VWS V14.00,2013-08-22 06:31:00,
2013-08-22 02:34:00,64.2,59.7,30.04,SE,138,0.0,6.0,85,0.00,,,0.00,VWS V14.00,2013-08-22 06:34:00,
2013-08-22 02:37:00,64.4,60.0,30.03,SSE,152,6.2,6.7,86,0.00,,,0.00,VWS V14.00,2013-08-22 06:37:00,
2013-08-22 02:40:00,64.6,60.3,30.03,SSE,165,5.2,6.8,86,0.00,,,0.00,VWS V14.00,2013-08-22 06:40:00,
2013-08-22 02:43:00,64.3,60.2,30.03,SSE,167,6.2,6.8,86,0.00,,,0.00,VWS V14.00,2013-08-22 06:43:00,
2013-08-22 02:46:00,64.2,60.2,30.03,SSE,163,5.2,8.3,87,0.00,,,0.00,VWS V14.00,2013-08-22 06:46:00,
2013-08-22 02:49:00,64.2,60.2,30.03,SSE,155,0.0,8.3,87,0.00,,,0.00,VWS V14.00,2013-08-22 06:49:00,
2013-08-22 02:52:00,64.3,60.3,30.03,SSE,156,3.4,8.3,87,0.00,,,0.00,VWS V14.00,2013-08-22 06:52:00,
2013-08-22 02:55:00,64.3,60.3,30.03,SE,146,5.8,8.3,87,0.00,,,0.00,VWS V14.00,2013-08-22 06:55:00,
2013-08-22 02:58:00,64.3,60.3,30.03,SE,145,4.2,8.3,87,0.00,,,0.00,VWS V14.00,2013-08-22 06:58:00,
2013-08-22 03:01:00,64.3,60.4,30.02,SE,146,0.0,8.3,87,0.00,,,0.00,VWS V14.00,2013-08-22 07:01:00,
2013-08-22 03:04:00,64.3,60.4,30.02,SSE,165,5.8,8.3,87,0.00,,,0.00,VWS V14.00,2013-08-22 07:04:00,
2013-08-22 03:07:00,64.2,60.3,30.02,SSE,153,6.0,8.3,87,0.00,,,0.00,VWS V14.00,2013-08-22 07:07:00,
2013-08-22 03:10:00,64.2,60.4,30.02,SSE,149,3.3,8.3,87,0.00,,,0.00,VWS V14.00,2013-08-22 07:10:00,
2013-08-22 03:13:00,64.2,60.4,30.02,SSE,150,3.1,8.3,87,0.00,,,0.00,VWS V14.00,2013-08-22 07:13:00,
2013-08-22 03:16:00,64.2,60.4,30.02,SSE,156,0.0,8.3,87,0.00,,,0.00,VWS V14.00,2013-08-22 07:16:00,
2013-08-22 03:19:00,64.1,60.2,30.02,SSE,156,0.0,8.3,87,0.00,,,0.00,VWS V14.00,2013-08-22 07:19:00,
2013-08-22 03:22:00,64.1,60.3,30.02,SSE,158,3.5,8.3,87,0.00,,,0.00,VWS V14.00,2013-08-22 07:22:00,
2013-08-22 03:25:00,64.1,60.3,30.02,SSE,149,5.2,8.3,87,0.00,,,0.00,VWS V14.00,2013-08-22 07:25:00,
2013-08-22 03:28:00,64.1,60.3,30.01,SSE,163,6.9,8.3,88,0.00,,,0.00,VWS V14.00,2013-08-22 07:28:00,
2013-08-22 03:31:00,64.1,60.4,30.01,SE,129,6.5,9.5,88,0.00,,,0.00,VWS V14.00,2013-08-22 07:31:00,
2013-08-22 03:34:00,63.9,60.3,30.01,SE,129,0.0,9.5,88,0.00,,,0.00,VWS V14.00,2013-08-22 07:34:00,
2013-08-22 03:37:00,63.9,60.4,30.01,SE,129,0.0,9.5,88,0.00,,,0.00,VWS V14.00,2013-08-22 07:37:00,
2013-08-22 03:40:00,64.0,60.5,30.01,SSE,153,7.4,9.5,88,0.00,,,0.00,VWS V14.00,2013-08-22 07:40:00,
2013-08-22 03:43:00,64.0,60.6,30.01,SSE,153,7.4,9.5,89,0.00,,,0.00,VWS V14.00,2013-08-22 07:43:00,
2013-08-22 03:47:00,64.0,60.6,30.01,SE,134,0.0,9.5,89,0.00,,,0.00,VWS V14.00,2013-08-22 07:47:00,
2013-08-22 03:50:00,64.1,60.7,30.01,SE,134,0.0,9.5,89,0.00,,,0.00,VWS V14.00,2013-08-22 07:50:00,
2013-08-22 03:53:00,64.0,60.6,30.00,SE,145,3.5,9.5,89,0.00,,,0.00,VWS V14.00,2013-08-22 07:53:00,
2013-08-22 03:56:00,64.1,60.8,30.00,SE,146,0.0,9.5,89,0.00,,,0.00,VWS V14.00,2013-08-22 07:56:00,
2013-08-22 04:02:00,64.1,60.7,30.00,SE,146,0.0,9.5,89,0.00,,,0.00,VWS V14.00,2013-08-22 08:02:00,
2013-08-22 04:05:00,64.1,60.7,30.00,SE,146,0.0,9.5,89,0.00,,,0.00,VWS V14.00,2013-08-22 08:05:00,
2013-08-22 04:14:00,64.0,60.6,30.00,SE,146,0.0,9.5,89,0.00,,,0.00,VWS V14.00,2013-08-22 08:14:00,
2013-08-22 04:17:00,64.2,60.8,30.00,SE,146,0.0,9.5,89,0.00,,,0.00,VWS V14.00,2013-08-22 08:17:00,
2013-08-22 04:29:00,64.0,60.5,30.00,SE,146,0.0,9.5,88,0.00,,,0.00,VWS V14.00,2013-08-22 08:29:00,
2013-08-22 04:32:00,63.9,60.5,30.00,SE,146,0.0,9.5,89,0.00,,,0.00,VWS V14.00,2013-08-22 08:32:00,
2013-08-22 04:50:00,63.8,60.3,29.98,SE,145,0.0,9.5,88,0.00,,,0.00,VWS V14.00,2013-08-22 08:50:00,
2013-08-22 04:52:00,64.0,60.6,30.00,SE,146,0.0,9.5,89,0.00,,,0.00,VWS V14.00,2013-08-22 08:52:00,
2013-08-22 04:53:00,63.7,60.2,29.98,SE,145,0.0,9.5,88,0.00,,,0.00,VWS V14.00,2013-08-22 08:53:00,
2013-08-22 05:01:00,64.1,60.7,30.00,SE,146,0.0,9.5,89,0.00,,,0.00,VWS V14.00,2013-08-22 09:01:00,
2013-08-22 05:02:00,63.6,60.3,29.98,SE,129,0.0,9.5,89,0.00,,,0.00,VWS V14.00,2013-08-22 09:02:00,
2013-08-22 05:11:00,63.7,60.6,29.98,SSE,152,0.0,9.5,90,0.00,,,0.00,VWS V14.00,2013-08-22 09:11:00,
2013-08-22 05:13:00,64.2,60.7,30.00,SE,146,0.0,9.5,88,0.00,,,0.00,VWS V14.00,2013-08-22 09:13:00,
2013-08-22 05:19:00,64.0,60.5,30.00,SE,146,0.0,9.5,88,0.00,,,0.00,VWS V14.00,2013-08-22 09:19:00,
2013-08-22 05:28:00,64.0,60.6,29.99,SE,146,0.0,9.5,89,0.00,,,0.00,VWS V14.00,2013-08-22 09:28:00,
2013-08-22 05:34:00,63.7,60.3,29.99,SE,146,0.0,9.5,89,0.00,,,0.00,VWS V14.00,2013-08-22 09:34:00,
2013-08-22 05:40:00,64.0,60.5,29.98,SSE,155,4.5,9.5,88,0.00,,,0.00,VWS V14.00,2013-08-22 09:40:00,
2013-08-22 05:49:00,63.8,60.4,29.98,SSE,163,5.5,9.5,89,0.00,,,0.00,VWS V14.00,2013-08-22 09:49:00,
2013-08-22 05:58:00,63.5,60.3,29.98,SE,129,0.0,9.5,89,0.00,,,0.00,VWS V14.00,2013-08-22 09:58:00,
2013-08-22 06:07:00,63.5,60.5,29.98,SSE,152,0.0,9.5,90,0.00,,,0.00,VWS V14.00,2013-08-22 10:07:00,
2013-08-22 06:13:00,63.4,60.3,29.98,SSE,159,3.4,9.5,90,0.00,,,0.00,VWS V14.00,2013-08-22 10:13:00,
2013-08-22 06:19:00,63.3,60.3,29.97,SE,131,0.0,9.5,90,0.00,,,0.00,VWS V14.00,2013-08-22 10:19:00,
2013-08-22 06:25:00,63.5,60.5,29.98,SSE,152,4.3,9.5,90,0.00,,,0.00,VWS V14.00,2013-08-22 10:25:00,
2013-08-22 06:31:00,63.1,60.2,29.98,SE,142,3.3,9.5,90,0.00,,,0.00,VWS V14.00,2013-08-22 10:31:00,
2013-08-22 06:37:00,63.1,60.2,29.98,SSE,153,3.0,9.5,90,0.00,,,0.00,VWS V14.00,2013-08-22 10:37:00,
2013-08-22 06:43:00,63.0,60.1,29.98,SSE,166,4.5,9.5,90,0.00,,,0.00,VWS V14.00,2013-08-22 10:43:00,
2013-08-22 06:49:00,62.9,60.0,29.98,SSE,153,0.0,9.5,90,0.00,,,0.00,VWS V14.00,2013-08-22 10:49:00,
2013-08-22 08:21:00,69.0,63.7,30.00,SE,135,0.0,9.5,83,0.00,,,0.00,VWS V14.00,2013-08-22 12:21:00,
2013-08-22 08:29:00,65.6,62.7,30.00,SE,135,0.0,9.5,90,0.00,,,0.00,VWS V14.00,2013-08-22 12:29:00,
2013-08-22 08:30:00,69.9,63.5,30.00,NNE,22,0.0,9.5,80,0.00,,,0.00,VWS V14.00,2013-08-22 12:30:00,
2013-08-22 08:35:00,65.8,62.3,30.00,SE,135,0.0,9.5,88,0.00,,,0.00,VWS V14.00,2013-08-22 12:35:00,
2013-08-22 08:41:00,66.2,62.5,30.00,SE,135,0.0,9.5,88,0.00,,,0.00,VWS V14.00,2013-08-22 12:41:00,
2013-08-22 08:47:00,66.6,62.8,30.00,SE,135,0.0,9.5,87,0.00,,,0.00,VWS V14.00,2013-08-22 12:47:00,
2013-08-22 08:54:00,67.0,62.9,30.00,SE,135,0.0,9.5,87,0.00,,,0.00,VWS V14.00,2013-08-22 12:54:00,
2013-08-22 09:00:00,67.7,63.2,30.00,SE,135,0.0,9.5,85,0.00,,,0.00,VWS V14.00,2013-08-22 13:00:00,
2013-08-22 09:06:00,68.3,63.5,30.00,SE,135,0.0,9.5,85,0.00,,,0.00,VWS V14.00,2013-08-22 13:06:00,
2013-08-22 09:12:00,68.9,63.9,30.00,SE,135,0.0,9.5,84,0.00,,,0.00,VWS V14.00,2013-08-22 13:12:00,
2013-08-22 09:18:00,69.4,63.5,30.00,NNE,22,0.0,9.5,82,0.00,,,0.00,VWS V14.00,2013-08-22 13:18:00,
2013-08-22 09:24:00,74.3,63.8,29.99,NNE,22,0.0,9.5,70,0.00,,,0.00,VWS V14.00,2013-08-22 13:24:00,
2013-08-22 09:27:00,70.1,63.2,30.00,NNE,22,0.0,9.5,79,0.00,,,0.00,VWS V14.00,2013-08-22 13:27:00,
2013-08-22 09:33:00,70.5,63.3,30.00,NNE,22,0.0,9.5,78,0.00,,,0.00,VWS V14.00,2013-08-22 13:33:00,
2013-08-22 09:39:00,71.0,63.7,30.00,NNE,22,0.0,9.5,78,0.00,,,0.00,VWS V14.00,2013-08-22 13:39:00,
2013-08-22 09:45:00,71.5,63.9,30.00,NNE,22,0.0,9.5,77,0.00,,,0.00,VWS V14.00,2013-08-22 13:45:00,
2013-08-22 09:51:00,71.9,63.9,30.00,NNE,22,0.0,9.5,76,0.00,,,0.00,VWS V14.00,2013-08-22 13:51:00,
2013-08-22 09:57:00,72.5,63.5,30.00,NNE,22,0.0,9.5,73,0.00,,,0.00,VWS V14.00,2013-08-22 13:57:00,
2013-08-22 10:03:00,72.8,63.3,30.00,NNE,22,0.0,9.5,72,0.00,,,0.00,VWS V14.00,2013-08-22 14:03:00,
2013-08-22 10:04:00,79.0,64.5,29.98,NNW,339,0.0,9.5,61,0.00,,,0.00,VWS V14.00,2013-08-22 14:04:00,
2013-08-22 10:09:00,73.3,63.6,30.00,NNE,22,0.0,9.5,72,0.00,,,0.00,VWS V14.00,2013-08-22 14:09:00,
2013-08-22 10:15:00,74.1,63.7,30.00,NNE,22,0.0,9.5,70,0.00,,,0.00,VWS V14.00,2013-08-22 14:15:00,
2013-08-22 10:21:00,74.9,64.2,29.99,NNW,342,0.0,9.5,69,0.00,,,0.00,VWS V14.00,2013-08-22 14:21:00,
2013-08-22 10:22:00,80.5,64.5,29.99,NNW,339,0.0,9.5,58,0.00,,,0.00,VWS V14.00,2013-08-22 14:22:00,
2013-08-22 10:30:00,76.1,64.8,30.00,NNW,342,0.0,9.5,68,0.00,,,0.00,VWS V14.00,2013-08-22 14:30:00,
2013-08-22 10:34:00,81.4,63.4,29.99,NNW,339,0.0,9.5,54,0.00,,,0.00,VWS V14.00,2013-08-22 14:34:00,
2013-08-22 10:36:00,76.4,63.8,30.00,NNW,339,0.0,9.5,65,0.00,,,0.00,VWS V14.00,2013-08-22 14:36:00,
2013-08-22 10:42:00,77.1,64.0,30.00,NNW,339,0.0,9.5,64,0.00,,,0.00,VWS V14.00,2013-08-22 14:42:00,
2013-08-22 10:48:00,77.9,64.6,29.99,NNW,339,0.0,9.5,64,0.00,,,0.00,VWS V14.00,2013-08-22 14:48:00,
2013-08-22 10:52:00,82.9,64.9,29.99,NNW,339,0.0,9.5,55,0.00,,,0.00,VWS V14.00,2013-08-22 14:52:00,
2013-08-22 10:54:00,78.7,64.3,29.99,NNW,339,0.0,9.5,61,0.00,,,0.00,VWS V14.00,2013-08-22 14:54:00,
2013-08-22 11:00:00,79.3,64.5,29.98,NNW,339,0.0,9.5,60,0.00,,,0.00,VWS V14.00,2013-08-22 15:00:00,
2013-08-22 11:01:00,83.5,62.5,29.99,NNW,339,0.0,9.5,49,0.00,,,0.00,VWS V14.00,2013-08-22 15:01:00,
2013-08-22 11:06:00,79.8,64.7,29.99,NNW,339,0.0,9.5,60,0.00,,,0.00,VWS V14.00,2013-08-22 15:06:00,
2013-08-22 11:12:00,80.2,64.5,29.99,NNW,339,0.0,9.5,59,0.00,,,0.00,VWS V14.00,2013-08-22 15:12:00,
2013-08-22 11:18:00,80.7,64.1,29.99,NNW,339,0.0,9.5,57,0.00,,,0.00,VWS V14.00,2013-08-22 15:18:00,
2013-08-22 11:24:00,81.2,63.4,29.99,NNW,339,0.0,9.5,55,0.00,,,0.00,VWS V14.00,2013-08-22 15:24:00,
2013-08-22 11:30:00,81.6,63.7,29.99,NNW,339,0.0,9.5,55,0.00,,,0.00,VWS V14.00,2013-08-22 15:30:00,
2013-08-22 11:36:00,82.1,64.2,29.99,NNW,339,0.0,9.5,55,0.00,,,0.00,VWS V14.00,2013-08-22 15:36:00,
2013-08-22 11:42:00,82.6,64.7,29.99,NNW,339,0.0,9.5,55,0.00,,,0.00,VWS V14.00,2013-08-22 15:42:00,
2013-08-22 11:48:00,83.2,63.7,29.99,NNW,339,0.0,9.5,52,0.00,,,0.00,VWS V14.00,2013-08-22 15:48:00,
2013-08-22 11:52:00,86.2,59.8,29.96,North,3,0.0,9.5,41,0.00,,,0.00,VWS V14.00,2013-08-22 15:52:00,
2013-08-22 11:57:00,83.6,62.6,29.99,NNW,339,0.0,9.5,49,0.00,,,0.00,VWS V14.00,2013-08-22 15:57:00,
2013-08-22 12:03:00,84.1,62.6,29.98,North,6,0.0,9.5,48,0.00,,,0.00,VWS V14.00,2013-08-22 16:03:00,
2013-08-22 12:09:00,84.4,61.4,29.98,North,6,0.0,9.5,46,0.00,,,0.00,VWS V14.00,2013-08-22 16:09:00,
2013-08-22 12:13:00,86.9,58.9,29.95,NE,52,4.4,9.5,39,0.00,,,0.00,VWS V14.00,2013-08-22 16:13:00,
2013-08-22 12:15:00,84.5,61.1,29.98,North,353,0.0,9.5,45,0.00,,,0.00,VWS V14.00,2013-08-22 16:15:00,
2013-08-22 12:19:00,87.3,57.6,29.95,North,0,0.0,9.5,37,0.00,,,0.00,VWS V14.00,2013-08-22 16:19:00,
2013-08-22 12:21:00,84.7,61.6,29.97,North,353,0.0,9.5,46,0.00,,,0.00,VWS V14.00,2013-08-22 16:21:00,
2013-08-22 12:22:00,87.3,57.7,29.94,North,0,0.0,9.5,37,0.00,,,0.00,VWS V14.00,2013-08-22 16:22:00,
2013-08-22 12:27:00,85.2,61.0,29.97,North,357,0.0,9.5,44,0.00,,,0.00,VWS V14.00,2013-08-22 16:27:00,
2013-08-22 12:33:00,85.6,60.0,29.97,North,4,5.3,9.5,42,0.00,,,0.00,VWS V14.00,2013-08-22 16:33:00,
2013-08-22 12:34:00,87.0,57.5,29.94,NNW,338,0.0,9.5,37,0.00,,,0.00,VWS V14.00,2013-08-22 16:34:00,
2013-08-22 12:39:00,85.7,58.9,29.96,NNE,27,0.0,9.5,40,0.00,,,0.00,VWS V14.00,2013-08-22 16:39:00,
2013-08-22 12:48:00,86.2,59.5,29.96,North,3,0.0,9.5,41,0.00,,,0.00,VWS V14.00,2013-08-22 16:48:00,
2013-08-22 12:52:00,86.6,57.9,29.94,NNE,17,4.2,9.5,38,0.00,,,0.00,VWS V14.00,2013-08-22 16:52:00,
2013-08-22 12:54:00,86.4,59.2,29.96,NW,322,1.4,9.5,40,0.00,,,0.00,VWS V14.00,2013-08-22 16:54:00,
2013-08-22 13:00:00,86.8,59.4,29.96,NE,35,2.5,9.5,40,0.00,,,0.00,VWS V14.00,2013-08-22 17:00:00,
2013-08-22 13:09:00,87.2,57.7,29.95,North,0,0.0,9.5,37,0.00,,,0.00,VWS V14.00,2013-08-22 17:09:00,
2013-08-22 13:17:00,86.6,58.9,29.92,NNE,13,0.0,9.5,39,0.00,,,0.00,VWS V14.00,2013-08-22 17:17:00,
2013-08-22 13:18:00,87.2,58.1,29.94,North,0,0.0,9.5,37,0.00,,,0.00,VWS V14.00,2013-08-22 17:18:00,
2013-08-22 13:24:00,87.2,58.1,29.94,NNW,343,4.7,9.5,37,0.00,,,0.00,VWS V14.00,2013-08-22 17:24:00,
2013-08-22 13:26:00,86.1,59.1,29.92,NNE,27,3.1,9.5,40,0.00,,,0.00,VWS V14.00,2013-08-22 17:26:00,
2013-08-22 13:29:00,85.9,59.1,29.92,NNE,31,0.0,9.5,40,0.00,,,0.00,VWS V14.00,2013-08-22 17:29:00,
2013-08-22 13:30:00,86.9,58.3,29.94,NNE,30,1.9,9.5,38,0.00,,,0.00,VWS V14.00,2013-08-22 17:30:00,
2013-08-22 13:32:00,85.8,58.6,29.92,NNE,31,0.0,9.5,40,0.00,,,0.00,VWS V14.00,2013-08-22 17:32:00,
2013-08-22 13:36:00,86.2,57.9,29.94,North,6,5.1,9.5,38,0.00,,,0.00,VWS V14.00,2013-08-22 17:36:00,
2013-08-22 13:42:00,86.7,59.0,29.94,North,11,0.0,9.5,39,0.00,,,0.00,VWS V14.00,2013-08-22 17:42:00,
2013-08-22 13:48:00,86.5,57.5,29.94,NNE,18,0.0,9.5,38,0.00,,,0.00,VWS V14.00,2013-08-22 17:48:00,
2013-08-22 13:54:00,86.7,59.4,29.93,NNE,15,0.0,9.5,40,0.00,,,0.00,VWS V14.00,2013-08-22 17:54:00,
2013-08-22 14:04:00,86.7,59.2,29.92,NNE,20,0.0,9.5,40,0.00,,,0.00,VWS V14.00,2013-08-22 18:04:00,
2013-08-22 14:13:00,86.5,58.9,29.92,NNE,13,0.0,9.5,39,0.00,,,0.00,VWS V14.00,2013-08-22 18:13:00,
2013-08-22 14:28:00,85.7,58.3,29.92,NNE,13,0.0,9.5,40,0.00,,,0.00,VWS V14.00,2013-08-22 18:28:00,
2013-08-22 14:34:00,85.5,58.2,29.92,NNE,15,0.0,9.5,40,0.00,,,0.00,VWS V14.00,2013-08-22 18:34:00,
2013-08-22 14:40:00,85.9,58.9,29.92,North,0,0.0,9.5,40,0.00,,,0.00,VWS V14.00,2013-08-22 18:40:00,
2013-08-22 14:46:00,86.1,58.9,29.91,North,0,0.0,9.5,40,0.00,,,0.00,VWS V14.00,2013-08-22 18:46:00,
2013-08-22 14:52:00,86.3,58.2,29.91,North,11,2.2,9.5,39,0.00,,,0.00,VWS V14.00,2013-08-22 18:52:00,
2013-08-22 14:58:00,86.5,59.3,29.91,North,8,4.3,9.5,40,0.00,,,0.00,VWS V14.00,2013-08-22 18:58:00,
2013-08-22 15:04:00,86.6,59.4,29.91,NNW,328,0.0,9.5,40,0.00,,,0.00,VWS V14.00,2013-08-22 19:04:00,
2013-08-22 15:10:00,86.5,58.7,29.90,North,8,3.4,9.5,39,0.00,,,0.00,VWS V14.00,2013-08-22 19:10:00,
2013-08-22 15:16:00,86.5,59.2,29.90,NNE,24,3.4,9.5,40,0.00,,,0.00,VWS V14.00,2013-08-22 19:16:00,
2013-08-22 15:22:00,86.2,58.7,29.90,North,357,0.0,9.5,39,0.00,,,0.00,VWS V14.00,2013-08-22 19:22:00,
2013-08-22 15:28:00,86.0,58.0,29.90,NW,311,0.0,9.5,39,0.00,,,0.00,VWS V14.00,2013-08-22 19:28:00,
2013-08-22 15:34:00,85.8,59.2,29.90,NNW,343,0.0,9.5,41,0.00,,,0.00,VWS V14.00,2013-08-22 19:34:00,
2013-08-22 15:40:00,85.9,59.5,29.90,NNE,15,0.0,9.5,41,0.00,,,0.00,VWS V14.00,2013-08-22 19:40:00,
2013-08-22 15:46:00,85.9,59.2,29.89,North,352,4.7,9.5,41,0.00,,,0.00,VWS V14.00,2013-08-22 19:46:00,
2013-08-22 15:52:00,85.7,58.7,29.89,NNE,18,4.5,9.5,40,0.00,,,0.00,VWS V14.00,2013-08-22 19:52:00,
2013-08-22 15:58:00,85.8,58.1,29.89,NNE,22,5.8,9.5,39,0.00,,,0.00,VWS V14.00,2013-08-22 19:58:00,
2013-08-22 16:04:00,85.8,58.5,29.89,NNW,338,0.0,9.5,40,0.00,,,0.00,VWS V14.00,2013-08-22 20:04:00,
2013-08-22 16:10:00,85.7,58.7,29.89,NW,316,0.0,9.5,40,0.00,,,0.00,VWS V14.00,2013-08-22 20:10:00,
2013-08-22 16:16:00,85.4,58.2,29.89,North,11,0.0,9.5,40,0.00,,,0.00,VWS V14.00,2013-08-22 20:16:00,
2013-08-22 16:22:00,84.8,58.4,29.88,North,7,0.0,9.5,41,0.00,,,0.00,VWS V14.00,2013-08-22 20:22:00,
2013-08-22 16:28:00,84.4,59.1,29.88,NNE,14,0.0,9.5,42,0.00,,,0.00,VWS V14.00,2013-08-22 20:28:00,
2013-08-22 16:34:00,84.3,59.1,29.88,NNE,20,5.3,9.5,43,0.00,,,0.00,VWS V14.00,2013-08-22 20:34:00,
2013-08-22 16:40:00,84.5,59.6,29.87,North,6,3.4,9.5,43,0.00,,,0.00,VWS V14.00,2013-08-22 20:40:00,
2013-08-22 16:46:00,84.7,59.4,29.87,North,11,0.0,9.5,42,0.00,,,0.00,VWS V14.00,2013-08-22 20:46:00,
2013-08-22 16:52:00,85.0,59.0,29.87,North,352,4.3,9.5,41,0.00,,,0.00,VWS V14.00,2013-08-22 20:52:00,
2013-08-22 16:58:00,84.9,58.7,29.87,NNW,329,3.1,9.5,41,0.00,,,0.00,VWS V14.00,2013-08-22 20:58:00,
2013-08-22 17:04:00,84.4,58.5,29.87,NNE,13,2.4,9.5,42,0.00,,,0.00,VWS V14.00,2013-08-22 21:04:00,
2013-08-22 17:10:00,83.6,58.6,29.87,North,356,5.1,9.5,43,0.00,,,0.00,VWS V14.00,2013-08-22 21:10:00,
2013-08-22 17:16:00,82.9,58.6,29.87,NNE,17,0.0,9.5,44,0.00,,,0.00,VWS V14.00,2013-08-22 21:16:00,
2013-08-22 17:22:00,82.3,58.7,29.87,NNE,17,0.0,9.5,45,0.00,,,0.00,VWS V14.00,2013-08-22 21:22:00,
2013-08-22 17:28:00,81.8,58.8,29.86,North,3,0.0,9.5,46,0.00,,,0.00,VWS V14.00,2013-08-22 21:28:00,
2013-08-22 17:35:00,81.5,58.8,29.87,North,3,0.0,9.5,46,0.00,,,0.00,VWS V14.00,2013-08-22 21:35:00,
2013-08-22 17:41:00,80.8,58.7,29.88,NNE,21,0.0,9.5,47,0.00,,,0.00,VWS V14.00,2013-08-22 21:41:00,
2013-08-22 17:47:00,80.5,60.9,29.88,North,353,1.9,9.5,51,0.00,,,0.00,VWS V14.00,2013-08-22 21:47:00,
2013-08-22 17:53:00,79.7,62.6,29.87,NE,38,0.0,9.5,56,0.00,,,0.00,VWS V14.00,2013-08-22 21:53:00,
2013-08-22 17:59:00,79.0,63.9,29.87,NE,38,0.0,9.5,60,0.00,,,0.00,VWS V14.00,2013-08-22 21:59:00,
2013-08-22 18:05:00,78.2,64.0,29.88,NE,38,2.2,9.5,62,0.00,,,0.00,VWS V14.00,2013-08-22 22:05:00,
2013-08-22 18:11:00,77.5,64.3,29.88,NE,38,0.0,9.5,64,0.00,,,0.00,VWS V14.00,2013-08-22 22:11:00,
2013-08-22 18:17:00,77.0,64.8,29.88,NE,38,0.0,9.5,66,0.00,,,0.00,VWS V14.00,2013-08-22 22:17:00,
2013-08-22 18:23:00,76.6,65.0,29.88,NE,38,0.0,9.5,67,0.00,,,0.00,VWS V14.00,2013-08-22 22:23:00,
2013-08-22 18:29:00,76.2,65.1,29.89,NNE,21,0.0,9.5,68,0.00,,,0.00,VWS V14.00,2013-08-22 22:29:00,
2013-08-22 18:35:00,75.9,65.1,29.89,North,354,0.0,9.5,69,0.00,,,0.00,VWS V14.00,2013-08-22 22:35:00,
2013-08-22 18:41:00,75.4,64.8,29.89,North,354,0.0,9.5,70,0.00,,,0.00,VWS V14.00,2013-08-22 22:41:00,
2013-08-22 18:47:00,75.0,64.5,29.89,NE,37,0.0,9.5,70,0.00,,,0.00,VWS V14.00,2013-08-22 22:47:00,
2013-08-22 18:53:00,74.6,64.4,29.90,North,8,0.0,9.5,71,0.00,,,0.00,VWS V14.00,2013-08-22 22:53:00,
2013-08-22 18:59:00,74.2,64.6,29.90,North,8,0.0,9.5,72,0.00,,,0.00,VWS V14.00,2013-08-22 22:59:00,
2013-08-22 19:05:00,73.9,64.8,29.90,North,8,0.0,9.5,73,0.00,,,0.00,VWS V14.00,2013-08-22 23:05:00,
2013-08-22 19:11:00,73.6,65.0,29.90,North,8,0.0,9.5,74,0.00,,,0.00,VWS V14.00,2013-08-22 23:11:00,
2013-08-22 19:17:00,73.4,64.9,29.90,North,8,0.0,9.5,75,0.00,,,0.00,VWS V14.00,2013-08-22 23:17:00,
2013-08-22 19:23:00,73.0,64.9,29.90,North,8,0.0,9.5,76,0.00,,,0.00,VWS V14.00,2013-08-22 23:23:00,
2013-08-22 19:29:00,72.9,65.1,29.89,North,8,0.0,9.5,77,0.00,,,0.00,VWS V14.00,2013-08-22 23:29:00,
2013-08-22 19:35:00,72.8,65.2,29.89,North,8,0.0,9.5,77,0.00,,,0.00,VWS V14.00,2013-08-22 23:35:00,
2013-08-22 19:41:00,72.5,64.7,29.89,North,8,0.0,9.5,77,0.00,,,0.00,VWS V14.00,2013-08-22 23:41:00,
2013-08-22 19:47:00,72.2,64.7,29.89,North,8,0.0,9.5,77,0.00,,,0.00,VWS V14.00,2013-08-22 23:47:00,
2013-08-22 19:53:00,72.0,64.7,29.89,North,8,0.0,9.5,78,0.00,,,0.00,VWS V14.00,2013-08-22 23:53:00,
2013-08-22 19:59:00,71.9,64.8,29.89,North,8,0.0,9.5,78,0.00,,,0.00,VWS V14.00,2013-08-22 23:59:00,
2013-08-22 20:05:00,71.8,65.0,29.89,North,8,0.0,9.5,79,0.00,,,0.00,VWS V14.00,2013-08-23 00:05:00,
2013-08-22 20:11:00,71.8,65.2,29.88,North,8,0.0,9.5,80,0.00,,,0.00,VWS V14.00,2013-08-23 00:11:00,
2013-08-22 20:17:00,71.7,65.0,29.88,North,8,0.0,9.5,79,0.00,,,0.00,VWS V14.00,2013-08-23 00:17:00,
2013-08-22 20:23:00,71.7,65.0,29.88,North,8,0.0,9.5,80,0.00,,,0.00,VWS V14.00,2013-08-23 00:23:00,
2013-08-22 20:29:00,71.6,65.0,29.89,North,8,0.0,9.5,80,0.00,,,0.00,VWS V14.00,2013-08-23 00:29:00,
2013-08-22 20:35:00,71.1,64.5,29.89,North,8,0.0,9.5,80,0.00,,,0.00,VWS V14.00,2013-08-23 00:35:00,
2013-08-22 20:41:00,71.1,64.6,29.89,North,8,0.0,9.5,80,0.00,,,0.00,VWS V14.00,2013-08-23 00:41:00,
2013-08-22 20:47:00,70.8,64.4,29.89,North,8,0.0,9.5,80,0.00,,,0.00,VWS V14.00,2013-08-23 00:47:00,
2013-08-22 20:53:00,70.5,64.3,29.89,North,8,0.0,9.5,81,0.00,,,0.00,VWS V14.00,2013-08-23 00:53:00,
2013-08-22 20:59:00,70.4,64.4,29.89,North,8,0.0,9.5,81,0.00,,,0.00,VWS V14.00,2013-08-23 00:59:00,
2013-08-22 21:05:00,70.2,64.6,29.89,North,8,0.0,9.5,82,0.00,,,0.00,VWS V14.00,2013-08-23 01:05:00,
2013-08-22 21:11:00,70.0,64.6,29.89,North,8,0.0,9.5,83,0.00,,,0.00,VWS V14.00,2013-08-23 01:11:00,
2013-08-22 21:17:00,69.9,64.7,29.89,North,8,0.0,9.5,83,0.00,,,0.00,VWS V14.00,2013-08-23 01:17:00,
2013-08-22 21:23:00,69.9,64.8,29.89,North,8,0.0,9.5,84,0.00,,,0.00,VWS V14.00,2013-08-23 01:23:00,
2013-08-22 21:29:00,69.9,64.8,29.89,North,8,0.0,9.5,84,0.00,,,0.00,VWS V14.00,2013-08-23 01:29:00,
2013-08-22 21:35:00,69.8,64.9,29.89,North,8,0.0,9.5,84,0.00,,,0.00,VWS V14.00,2013-08-23 01:35:00,
2013-08-22 21:41:00,69.9,64.9,29.89,North,8,0.0,9.5,84,0.00,,,0.00,VWS V14.00,2013-08-23 01:41:00,
2013-08-22 21:47:00,69.9,64.9,29.89,North,8,0.0,9.5,84,0.00,,,0.00,VWS V14.00,2013-08-23 01:47:00,
2013-08-22 21:53:00,70.0,65.0,29.89,North,8,0.0,9.5,84,0.00,,,0.00,VWS V14.00,2013-08-23 01:53:00,
2013-08-22 21:59:00,69.8,64.9,29.89,North,8,0.0,9.5,84,0.00,,,0.00,VWS V14.00,2013-08-23 01:59:00,
2013-08-22 22:05:00,69.7,64.6,29.89,North,8,0.0,9.5,84,0.00,,,0.00,VWS V14.00,2013-08-23 02:05:00,
2013-08-22 22:11:00,69.5,64.6,29.89,North,8,0.0,9.5,84,0.00,,,0.00,VWS V14.00,2013-08-23 02:11:00,
2013-08-22 22:18:00,69.4,64.7,29.89,North,8,0.0,9.5,85,0.00,,,0.00,VWS V14.00,2013-08-23 02:18:00,
2013-08-22 22:24:00,69.2,64.6,29.90,North,8,0.0,9.5,85,0.00,,,0.00,VWS V14.00,2013-08-23 02:24:00,
2013-08-22 22:30:00,69.2,64.9,29.90,North,8,0.0,9.5,86,0.00,,,0.00,VWS V14.00,2013-08-23 02:30:00,
2013-08-22 22:36:00,69.2,64.9,29.90,North,8,0.0,9.5,86,0.00,,,0.00,VWS V14.00,2013-08-23 02:36:00,
2013-08-22 22:42:00,68.9,64.7,29.90,North,8,0.0,9.5,87,0.00,,,0.00,VWS V14.00,2013-08-23 02:42:00,
2013-08-22 22:48:00,68.7,64.7,29.91,North,8,0.0,9.5,87,0.00,,,0.00,VWS V14.00,2013-08-23 02:48:00,
2013-08-22 22:54:00,68.4,64.4,29.91,North,8,0.0,9.5,87,0.00,,,0.00,VWS V14.00,2013-08-23 02:54:00,
2013-08-22 23:00:00,68.5,64.7,29.90,North,8,0.0,9.5,88,0.00,,,0.00,VWS V14.00,2013-08-23 03:00:00,
2013-08-22 23:06:00,68.5,64.8,29.91,North,8,0.0,9.5,88,0.00,,,0.00,VWS V14.00,2013-08-23 03:06:00,
2013-08-22 23:12:00,68.2,64.6,29.91,North,8,0.0,9.5,88,0.00,,,0.00,VWS V14.00,2013-08-23 03:12:00,
2013-08-22 23:18:00,68.3,64.7,29.91,North,8,0.0,9.5,88,0.00,,,0.00,VWS V14.00,2013-08-23 03:18:00,
2013-08-22 23:24:00,68.1,64.6,29.91,North,8,0.0,9.5,89,0.00,,,0.00,VWS V14.00,2013-08-23 03:24:00,
2013-08-22 23:30:00,68.1,64.7,29.91,North,8,0.0,9.5,89,0.00,,,0.00,VWS V14.00,2013-08-23 03:30:00,
2013-08-22 23:36:00,68.1,64.8,29.91,North,8,0.0,0.0,89,0.00,,,0.00,VWS V14.00,2013-08-23 03:36:00,
2013-08-22 23:42:00,68.0,64.8,29.91,North,8,0.0,0.0,90,0.00,,,0.00,VWS V14.00,2013-08-23 03:42:00,
2013-08-22 23:48:00,68.0,64.9,29.91,North,8,0.0,0.0,90,0.00,,,0.00,VWS V14.00,2013-08-23 03:48:00,
2013-08-22 23:53:00,67.8,64.7,29.91,North,8,0.0,0.0,90,0.00,,,0.00,VWS V14.00,2013-08-23 03:53:00,